ELECTRON R/B (44500 NORAD) Tracking and Keplerian Element Data

This shows tracking and keplerian element data for the satellite.

Feedback or suggestion? Click here.




ElementValue
Catalog44500
NameELECTRON R/B
Epoch Orbit232
Epoch Day252.56026096
Epoch Year2019
RAAN336.6721
Inclination45.0078
Eccentricity0.0184757
Argument of Perigee3.9138
Mean Anonmoly356.7107
Mean Motion15.49069268
Decay Rate3.07E-06
L11 44500U 19054F 19252.56026096 .00000307 85948-5 26568-4 0 9995
L22 44500 45.0078 336.6721 0184757 3.9138 356.7107 15.49069268 2329

Live tracking and technical data element details for ELECTRON R/B (NORAD 44500). ELECTRON R/B can be tracked NOW for your location showing map with azimuth and elevation plus other details from your city location.

Track the satellite on the map from your city or location and see movement details for azimuth, elevation, latitude, longitude, range, height, and movement on the map or in text.







IsCatalogInMostPopularTable: catalog: 44500, numindb: 9
Update: records affected: 1



GetName: 44500 ELECTRON R/B

Hit Count: updated at: Thu, 19 Sep 2019 17:10:44 GMT